H1 CPF 2 NER 2023 8 25 9 237 01 glonass143 H2 2007501 9143 46805 2023 8 25 0 0 0 2023 8 28 23 45 0 900 1 1 0 0 0 1 H9 10 0 60181 0.00000 0 2228554.595 23622021.202 -9326562.866 10 0 60181 900.00000 0 1938261.029 22318819.256 -12165914.376 10 0 60181 1800.00000 0 1428422.923 20729346.809 -14768519.873 10 0 60181 2700.00000 0 672745.711 18908306.542 -17083722.815 10 0 60181 3600.00000 0 -343730.203 16916645.198 -19066468.580 10 0 60181 4500.00000 0 -1623746.105 14819075.303 -20678185.383 10 0 60181 5400.00000 0 -3157462.941 12681457.435 -21887536.916 10 0 60181 6300.00000 0 -4922636.955 10568153.117 -22671032.070 10 0 60181 7200.00000 0 -6885326.569 8539459.336 -23013480.039 10 0 60181 8100.00000 0 -9001101.580 6649231.927 -22908282.332 10 0 60181 9000.00000 0 -11216704.666 4942796.773 -22357556.410 10 0 60181 9900.00000 0 -13472096.093 3455235.454 -21372088.985 10 0 60181 10800.00000 0 -15702796.486 2210115.925 -19971120.304 10 0 60181 11700.00000 0 -17842430.056 1218720.011 -18181963.917 10 0 60181 12600.00000 0 -19825362.199 479798.484 -16039469.652 10 0 60181 13500.00000 0 -21589321.488 -20137.732 -13585340.432 10 0 60181 14400.00000 0 -23077896.707 -306004.201 -10867316.459 10 0 60181 15300.00000 0 -24242804.768 -412843.409 -7938242.835 10 0 60181 16200.00000 0 -25045835.018 -384095.303 -4855039.035 10 0 60181 17100.00000 0 -25460389.019 -269512.293 -1677590.482 10 0 60181 18000.00000 0 -25472551.881 -122807.873 1532415.855 10 0 60181 18900.00000 0 -25081650.941 860.872 4712688.983 10 0 60181 19800.00000 0 -24300279.084 47469.872 7801541.097 10 0 60181 20700.00000 0 -23153782.444 -33345.530 10739080.908 10 0 60181 21600.00000 0 -21679234.536 -285921.285 13468370.101 10 0 60181 22500.00000 0 -19923940.208 -746452.599 15936520.809 10 0 60181 23400.00000 0 -17943532.207 -1441228.253 18095713.332 10 0 60181 24300.00000 0 -15799739.788 -2385285.800 19904115.126 10 0 60181 25200.00000 0 -13557922.148 -3581544.509 21326684.111 10 0 60181 26100.00000 0 -11284468.842 -5020453.033 22335841.567 10 0 60181 27000.00000 0 -9044174.575 -6680167.442 22912002.446 10 0 60181 27900.00000 0 -6897696.522 -8527253.381 23043953.422 10 0 60181 28800.00000 0 -4899198.837 -10517884.440 22729071.740 10 0 60181 29700.00000 0 -3094281.183 -12599488.382 21973380.640 10 0 60181 30600.00000 0 -1518276.409 -14712774.282 20791439.979 10 0 60181 31500.00000 0 -194987.419 -16794057.702 19206073.488 10 0 60181 32400.00000 0 864084.826 -18777788.417 17247937.032 10 0 60181 33300.00000 0 1659990.414 -20599176.406 14954935.136 10 0 60181 34200.00000 0 2206046.597 -22196807.222 12371495.916 10 0 60181 35100.00000 0 2527033.019 -23515137.753 9547717.444 10 0 60181 36000.00000 0 2657900.072 -24506767.837 6538401.186 10 0 60181 36900.00000 0 2642044.911 -25134392.024 3401990.737 10 0 60181 37800.00000 0 2529228.232 -25372348.830 199436.250 10 0 60181 38700.00000 0 2373220.296 -25207701.429 -3006993.276 10 0 60181 39600.00000 0 2229276.518 -24640803.330 -6154926.204 10 0 60181 40500.00000 0 2151550.437 -23685324.293 -9183108.613 10 0 60181 41400.00000 0 2190554.781 -22367734.597 -12032604.126 10 0 60181 42300.00000 0 2390779.444 -20726268.822 -14647948.905 10 0 60181 43200.00000 0 2788568.589 -18809412.389 -16978238.431 10 0 60181 44100.00000 0 3410348.019 -16673974.395 -18978124.222 10 0 60181 45000.00000 0 4271279.072 -14382827.744 -20608700.550 10 0 60181 45900.00000 0 5374396.978 -12002411.535 -21838263.653 10 0 60181 46800.00000 0 6710271.084 -9600100.477 -22642928.688 10 0 60181 47700.00000 0 8257202.085 -7241551.523 -23007092.562 10 0 60181 48600.00000 0 9981948.681 -4988138.491 -22923734.026 10 0 60181 49500.00000 0 11840953.718 -2894581.472 -22394545.588 10 0 60181 50400.00000 0 13782018.822 -1006869.368 -21429895.099 10 0 60181 51300.00000 0 15746357.605 639438.674 -20048618.190 10 0 60181 52200.00000 0 17670941.753 2020463.269 -18277645.911 10 0 60181 53100.00000 0 19491041.827 3124755.487 -16151475.101 10 0 60181 54000.00000 0 21142856.550 3953518.563 -13711492.051 10 0 60181 54900.00000 0 22566120.580 4520293.196 -11005162.796 10 0 60181 55800.00000 0 23706581.623 4850121.506 -8085106.039 10 0 60181 56700.00000 0 24518243.290 4978226.639 -5008066.985 10 0 60181 57600.00000 0 24965279.899 4948265.292 -1833812.288 10 0 60181 58500.00000 0 25023543.280 4810228.255 1376032.088 10 0 60181 59400.00000 0 24681598.780 4618078.797 4559177.242 10 0 60181 60300.00000 0 23941247.484 4427229.444 7653878.565 10 0 60181 61200.00000 0 22817513.205 4291964.370 10600130.256 10 0 60181 62100.00000 0 21338095.176 4262916.538 13340824.082 10 0 60181 63000.00000 0 19542309.626 4384706.243 15822850.255 10 0 60181 63900.00000 0 17479564.552 4693840.636 17998119.533 10 0 60181 64800.00000 0 15207431.247 5216962.722 19824487.504 10 0 60181 65700.00000 0 12789392.547 5969523.584 21266563.949 10 0 60181 66600.00000 0 10292360.929 6954933.886 22296392.468 10 0 60181 67500.00000 0 7784068.788 8164230.788 22893988.027 10 0 60181 68400.00000 0 5330438.225 9576275.050 23047722.646 10 0 60181 69300.00000 0 2993038.463 11158471.235 22754552.127 10 0 60181 70200.00000 0 826735.213 12867982.246 22020079.508 10 0 60181 71100.00000 0 -1122371.495 14653389.026 20858453.670 10 0 60181 72000.00000 0 -2818636.304 16456727.643 19292104.475 10 0 60181 72900.00000 0 -4238114.896 18215820.157 17351318.608 10 0 60181 73800.00000 0 -5369316.434 19866803.107 15073663.259 10 0 60181 74700.00000 0 -6213431.084 21346748.742 12503267.672 10 0 60181 75600.00000 0 -6784023.439 22596269.767 9689975.406 10 0 60181 76500.00000 0 -7106204.949 23561998.453 6688382.852 10 0 60181 77400.00000 0 -7215320.375 24198835.672 3556782.110 10 0 60181 78300.00000 0 -7155203.942 24471874.611 356028.504 10 0 60181 79200.00000 0 -6976079.234 24357917.248 -2851645.144 10 0 60181 80100.00000 0 -6732192.247 23846518.558 -6003843.909 10 0 60181 81000.00000 0 -6479278.562 22940513.342 -9039231.485 10 0 60181 81900.00000 0 -6271972.903 21656002.339 -11898731.584 10 0 60181 82800.00000 0 -6161271.911 20021797.325 -14526685.647 10 0 60181 83700.00000 0 -6192158.780 18078347.828 -16871943.469 10 0 60181 84600.00000 0 -6401491.487 15876194.113 -18888864.780 10 0 60181 85500.00000 0 -6816245.070 13474011.149 -20538211.737 10 0 60182 0.00000 0 -7452183.165 10936325.710 -21787914.618 10 0 60182 900.00000 0 -8313016.114 8331000.805 -22613696.401 10 0 60182 1800.00000 0 -9390080.944 5726596.018 -22999542.636 10 0 60182 2700.00000 0 -10662558.368 3189709.395 -22938010.066 10 0 60182 3600.00000 0 -12098217.285 782414.813 -22430366.634 10 0 60182 4500.00000 0 -13654656.060 -1440100.115 -21486561.323 10 0 60182 5400.00000 0 -15280988.599 -3431597.741 -20125024.719 10 0 60182 6300.00000 0 -16919904.561 -5156470.711 -18372304.504 10 0 60182 7200.00000 0 -18510017.271 -6590970.178 -16262543.262 10 0 60182 8100.00000 0 -19988400.846 -7723932.211 -13836809.029 10 0 60182 9000.00000 0 -21293210.053 -8556973.830 -11142291.761 10 0 60182 9900.00000 0 -22366272.924 -9104152.327 -8231381.619 10 0 60182 10800.00000 0 -23155547.299 -9391104.114 -5160647.238 10 0 60182 11700.00000 0 -23617338.229 -9453701.102 -1989734.058 10 0 60182 12600.00000 0 -23718183.214 -9336282.832 1219795.496 10 0 60182 13500.00000 0 -23436326.299 -9089540.300 4405657.245 10 0 60182 14400.00000 0 -22762719.360 -8768141.808 7506052.476 10 0 60182 15300.00000 0 -21701508.781 -8428201.863 10460863.613 10 0 60182 16200.00000 0 -20269987.307 -8124700.413 13212815.247 10 0 60182 17100.00000 0 -18498013.150 -7908961.491 15708578.340 10 0 60182 18000.00000 0 -16426920.577 -7826297.590 17899796.649 10 0 60182 18900.00000 0 -14107967.171 -7913918.860 19744016.221 10 0 60182 19800.00000 0 -11600381.993 -8199194.986 21205500.759 10 0 60182 20700.00000 0 -8969095.131 -8698342.751 22255917.922 10 0 60182 21600.00000 0 -6282242.062 -9415594.531 22874884.088 10 0 60182 22500.00000 0 -3608545.296 -10342883.034 23050357.668 10 0 60182 23400.00000 0 -1014680.696 -11460056.175 22778873.738 10 0 60182 24300.00000 0 1437263.521 -12735614.126 22065615.512 10 0 60182 25200.00000 0 3692130.996 -14127938.923 20924320.988 10 0 60182 26100.00000 0 5703748.342 -15586966.556 19377025.938 10 0 60182 27000.00000 0 7436598.913 -17056232.937 17453647.331 10 0 60182 27900.00000 0 8867050.259 -18475209.350 15191414.157 10 0 60182 28800.00000 0 9984084.608 -19781830.478 12634155.558 10 0 60182 29700.00000 0 10789502.208 -20915109.643 9831458.972 10 0 60182 30600.00000 0 11297589.286 -21817731.631 6837713.736 10 0 60182 31500.00000 0 11534264.776 -22438513.887 3711058.115 10 0 60182 32400.00000 0 11535741.996 -22734631.873 512249.970 10 0 60182 33300.00000 0 11346762.052 -22673513.862 -2696516.924 10 0 60182 34200.00000 0 11018474.094 -22234324.120 -5852827.397 10 0 60182 35100.00000 0 10606052.734 -21408970.595 -8895265.902 10 0 60182 36000.00000 0 10166154.299 -20202593.289 -11764619.427 10 0 60182 36900.00000 0 9754320.609 -18633511.539 -14405037.858 10 0 60182 37800.00000 0 9422441.203 -16732631.339 -16765128.386 10 0 60182 38700.00000 0 9216382.503 -14542336.840 -18798961.852 10 0 60182 39600.00000 0 9173885.168 -12114911.976 -20466970.952 10 0 60182 40500.00000 0 9322819.331 -9510558.024 -21736722.506 10 0 60182 41400.00000 0 9679872.119 -6795089.852 -22583548.775 10 0 60182 42300.00000 0 10249723.288 -4037406.980 -22991025.662 10 0 60182 43200.00000 0 11024744.061 -1306844.884 -22951288.880 10 0 60182 44100.00000 0 11985232.022 1329483.334 -22465182.303 10 0 60182 45000.00000 0 13100172.212 3809244.517 -21542236.086 10 0 60182 45900.00000 0 14328492.377 6077236.404 -20200475.367 10 0 60182 46800.00000 0 15620759.476 8087434.933 -18466063.632 10 0 60182 47700.00000 0 16921245.979 9804653.693 -16372787.986 10 0 60182 48600.00000 0 18170278.901 11205747.734 -13961396.566 10 0 60182 49500.00000 0 19306772.692 12280313.097 -11278801.212 10 0 60182 50400.00000 0 20270839.240 13030854.530 -8377161.138 10 0 60182 51300.00000 0 21006365.152 13472416.306 -5312865.654 10 0 60182 52200.00000 0 21463447.788 13631693.442 -2145435.982 10 0 60182 53100.00000 0 21600587.525 13545662.459 1063632.189 10 0 60182 54000.00000 0 21386544.088 13259790.864 4252062.657 10 0 60182 54900.00000 0 20801778.938 12825902.071 7358005.826 10 0 60182 55800.00000 0 19839423.127 12299786.735 10321235.432 10 0 60182 56700.00000 0 18505730.056 11738661.861 13084311.780 10 0 60182 57600.00000 0 16819993.978 11198585.085 15593689.219 10 0 60182 58500.00000 0 14813937.483 10731933.125 17800746.875 10 0 60182 59400.00000 0 12530593.082 10385050.389 19662723.336 10 0 60182 60300.00000 0 10022724.922 10196166.341 21143538.025 10 0 60182 61200.00000 0 7350855.452 10193668.874 22214484.158 10 0 60182 62100.00000 0 4580978.069 10394805.952 22854780.708 10 0 60182 63000.00000 0 1782049.394 10804870.000 23051973.317 10 0 60182 63900.00000 0 -976636.055 11416899.465 22802176.786 10 0 60182 64800.00000 0 -3628081.354 12211910.607 22110154.551 10 0 60182 65700.00000 0 -6110124.892 13159650.638 20989233.319 10 0 60182 66600.00000 0 -8367776.192 14219841.673 19461053.920 10 0 60182 67500.00000 0 -10355253.889 15343864.522 17555162.329 10 0 60182 68400.00000 0 -12037641.900 16476812.837 15308447.668 10 0 60182 69300.00000 0 -13392095.344 17559832.402 12764436.987 10 0 60182 70200.00000 0 -14408546.238 18532647.975 9972459.369 10 0 60182 71100.00000 0 -15089879.697 19336171.805 6986694.680 10 0 60182 72000.00000 0 -15451573.345 19915083.877 3865124.823 10 0 60182 72900.00000 0 -15520815.301 20220274.692 668407.582 10 0 60182 73800.00000 0 -15335138.057 20211046.644 -2541304.981 10 0 60182 74700.00000 0 -14940626.308 19856979.911 -5701580.130 10 0 60182 75600.00000 0 -14389774.898 19139382.737 -8750925.749 10 0 60182 76500.00000 0 -13739088.197 18052263.395 -11629994.702 10 0 60182 77400.00000 0 -13046523.270 16602781.425 -14282747.821 10 0 60182 78300.00000 0 -12368885.913 14811157.804 -16657552.009 10 0 60182 79200.00000 0 -11759290.639 12710046.672 -18708191.347 10 0 60182 80100.00000 0 -11264792.822 10343394.136 -20394770.949 10 0 60182 81000.00000 0 -10924293.778 7764831.312 -21684495.711 10 0 60182 81900.00000 0 -10766807.733 5035668.400 -22552308.754 10 0 60182 82800.00000 0 -10810164.111 2222573.302 -22981377.283 10 0 60182 83700.00000 0 -11060199.925 -604968.580 -22963416.737 10 0 60182 84600.00000 0 -11510476.245 -3377307.784 -22498847.357 10 0 60182 85500.00000 0 -12142530.394 -6027287.275 -21596780.535 10 0 60183 0.00000 0 -12926652.858 -8492791.665 -20274835.787 10 0 60183 900.00000 0 -13823156.259 -10719085.058 -18558791.479 10 0 60183 1800.00000 0 -14784081.431 -12660837.799 -16482078.276 10 0 60183 2700.00000 0 -15755269.786 -14283763.199 -14085123.046 10 0 60183 3600.00000 0 -16678713.297 -15565794.014 -11414557.869 10 0 60183 4500.00000 0 -17495083.151 -16497752.418 -8522309.144 10 0 60183 5400.00000 0 -18146330.191 -17083486.910 -5464584.827 10 0 60183 6300.00000 0 -18578247.362 -17339472.198 -2300779.740 10 0 60183 7200.00000 0 -18742885.986 -17293890.553 907679.462 10 0 60183 8100.00000 0 -18600723.976 -16985234.856 4098526.981 10 0 60183 9000.00000 0 -18122494.582 -16460493.501 7209864.879 10 0 60183 9900.00000 0 -17290598.670 -15772994.684 10181360.843 10 0 60183 10800.00000 0 -16100041.007 -14980001.626 12955413.584 10 0 60183 11700.00000 0 -14558851.073 -14140160.433 15478263.537 10 0 60183 12600.00000 0 -12687970.391 -13310908.141 17701027.817 10 0 60183 13500.00000 0 -10520610.569 -12545949.783 19580640.028 10 0 60183 14400.00000 0 -8101108.069 -11892910.138 21080677.564 10 0 60183 15300.00000 0 -5483322.499 -11391258.314 22172061.182 10 0 60183 16200.00000 0 -2728643.861 -11070591.726 22833614.109 10 0 60183 17100.00000 0 96309.824 -10949351.066 23052470.550 10 0 60183 18000.00000 0 2922210.397 -11034019.903 22824326.036 10 0 60183 18900.00000 0 5679650.036 -11318842.534 22153524.906 10 0 60183 19800.00000 0 8301776.709 -11786072.241 21052982.939 10 0 60183 20700.00000 0 10726826.552 -12406740.141 19543946.074 10 0 60183 21600.00000 0 12900449.166 -13141913.195 17655589.008 10 0 60183 22500.00000 0 14777730.038 -13944389.442 15424460.359 10 0 60183 23400.00000 0 16324826.438 -14760760.087 12893784.050 10 0 60183 24300.00000 0 17520148.911 -15533752.393 10112629.349 10 0 60183 25200.00000 0 18355039.146 -16204755.156 7134964.752 10 0 60183 26100.00000 0 18833915.831 -16716420.312 4018613.466 10 0 60183 27000.00000 0 18973882.404 -17015230.602 824130.490 10 0 60183 27900.00000 0 18803813.246 -17053924.079 -2386376.834 10 0 60183 28800.00000 0 18362957.004 -16793671.977 -5550461.413 10 0 60183 29700.00000 0 17699116.289 -16205916.519 -8606557.869 10 0 60183 30600.00000 0 16866481.162 -15273789.536 -11495188.263 10 0 60183 31500.00000 0 15923208.584 -13993050.411 -14160127.612 10 0 60183 32400.00000 0 14928850.927 -12372502.290 -16549505.644 10 0 60183 33300.00000 0 13941742.979 -10433867.615 -18616822.583 10 0 60183 34200.00000 0 13016458.574 -8211127.056 -20321858.616 10 0 60183 35100.00000 0 12201444.833 -5749348.602 -21631459.047 10 0 60183 36000.00000 0 11536934.201 -3103055.136 -22520179.822 10 0 60183 36900.00000 0 11053222.525 -334198.206 -22970780.984 10 0 60183 37800.00000 0 10769385.604 2490177.812 -22974558.803 10 0 60183 38700.00000 0 10692487.958 5300484.115 -22531510.523 10 0 60183 39600.00000 0 10817316.628 8027242.597 -21650328.961 10 0 60183 40500.00000 0 11126650.540 10603737.571 -20348227.484 10 0 60183 41400.00000 0 11592053.355 12968554.252 -18650599.137 10 0 60183 42300.00000 0 12175155.666 15067898.953 -16590516.851 10 0 60183 43200.00000 0 12829371.760 16857605.255 -14208084.720 10 0 60183 44100.00000 0 13501977.916 18304743.568 -11549653.158 10 0 60183 45000.00000 0 14136463.997 19388768.140 -8666913.456 10 0 60183 45900.00000 0 14675058.628 20102155.050 -5615889.569 10 0 60183 46800.00000 0 15061321.004 20450505.982 -2455846.980 10 0 60183 47700.00000 0 15242689.651 20452115.045 751859.847 10 0 60183 48600.00000 0 15172880.358 20137018.351 3944978.784 10 0 60183 49500.00000 0 14814031.995 19545567.687 7061566.836 10 0 60183 50400.00000 0 14138509.611 18726589.397 10041188.839 10 0 60183 51300.00000 0 13130288.737 17735206.816 12826084.938 10 0 60183 52200.00000 0 11785862.410 16630418.321 15362284.464 10 0 60183 53100.00000 0 10114632.475 15472533.067 17600645.068 10 0 60183 54000.00000 0 8138768.164 14320571.981 19497797.638 10 0 60183 54900.00000 0 5892537.056 13229742.731 21016979.499 10 0 60183 55800.00000 0 3421135.320 12249094.014 22128740.569 10 0 60183 56700.00000 0 779064.725 11419446.783 22811509.612 10 0 60183 57600.00000 0 -1971877.581 10771688.401 23052010.279 10 0 60183 58500.00000 0 -4764914.510 10325500.581 22845519.293 10 0 60183 59400.00000 0 -7530815.244 10088573.984 22195961.883 10 0 60183 60300.00000 0 -10200528.959 10056342.252 21115842.414 10 0 60183 61200.00000 0 -12707818.171 10212246.720 19626010.953 10 0 60183 62100.00000 0 -14991783.589 10528521.103 17755269.462 10 0 60183 63000.00000 0 -16999176.448 10967463.725 15539824.183 10 0 60183 63900.00000 0 -18686402.664 11483144.443 13022593.696 10 0 60183 64800.00000 0 -20021135.589 12023474.988 10252384.983 10 0 60183 65700.00000 0 -20983470.080 12532555.862 7282952.539 10 0 60183 66600.00000 0 -21566569.429 12953200.895 4171958.175 10 0 60183 67500.00000 0 -21776777.882 13229532.610 979851.393 10 0 60183 68400.00000 0 -21633193.836 13309538.095 -2231307.876 10 0 60183 69300.00000 0 -21166721.605 13147476.317 -5399060.818 10 0 60183 70200.00000 0 -20418641.814 12706033.794 -8461771.371 10 0 60183 71100.00000 0 -19438761.013 11958135.978 -11359833.273 10 0 60183 72000.00000 0 -18283219.054 10888336.197 -14036838.091 10 0 60183 72900.00000 0 -17012047.393 9493721.896 -16440680.563 10 0 60183 73800.00000 0 -15686582.048 7784298.422 -18524579.021 10 0 60183 74700.00000 0 -14366840.981 5782832.830 -20247990.413 10 0 60183 75600.00000 0 -13108977.053 3524163.068 -21577401.840 10 0 60183 76500.00000 0 -11962914.187 1054000.544 -22486983.130 10 0 60183 77400.00000 0 -10970266.400 -1572724.562 -22959087.896 10 0 60183 78300.00000 0 -10162627.075 -4293906.631 -22984593.629 10 0 60183 79200.00000 0 -9560300.007 -7042611.833 -22563074.648 10 0 60183 80100.00000 0 -9171524.849 -9749631.684 -21702804.937 10 0 60183 81000.00000 0 -8992228.652 -12346136.962 -20420591.288 10 0 60183 81900.00000 0 -9006312.896 -14766321.874 -18741440.323 10 0 60183 82800.00000 0 -9186462.821 -16949928.814 -16698066.220 10 0 60183 83700.00000 0 -9495443.875 -18844549.162 -14330248.953 10 0 60183 84600.00000 0 -9887829.599 -20407604.998 -11684055.752 10 0 60183 85500.00000 0 -10312087.130 -21607929.957 -8810941.145 10 0 60184 0.00000 0 -10712931.477 -22426884.258 -5766743.614 10 0 60184 900.00000 0 -11033848.719 -22858958.870 -2610596.912 10 0 60184 1800.00000 0 -11219680.489 -22911843.883 596218.348 10 0 60184 2700.00000 0 -11219160.953 -22605960.985 3791465.739 10 0 60184 3600.00000 0 -10987298.304 -21973479.832 6913159.349 10 0 60184 4500.00000 0 -10487500.296 -21056861.218 9900763.430 10 0 60184 5400.00000 0 -9693353.965 -19906989.073 12696361.934 10 0 60184 6300.00000 0 -8589984.335 -18580970.356 15245775.522 10 0 60184 7200.00000 0 -7174934.631 -17139695.455 17499604.815 10 0 60184 8100.00000 0 -5458530.517 -15645261.426 19414180.342 10 0 60184 9000.00000 0 -3463712.325 -14158365.695 20952401.571 10 0 60184 9900.00000 0 -1225341.276 -12735778.779 22084449.585 10 0 60184 10800.00000 0 1210992.587 -11428001.019 22788360.418 10 0 60184 11700.00000 0 3790612.631 -10277200.435 23050448.611 10 0 60184 12600.00000 0 6451781.286 -9315517.124 22865573.203 10 0 60184 13500.00000 0 9128026.658 -8563804.324 22237241.140 10 0 60184 14400.00000 0 11750675.150 -8030858.292 21177545.879 10 0 60184 15300.00000 0 14251486.412 -7713168.880 19706941.803 10 0 60184 16200.00000 0 16565282.466 -7595201.258 17853858.021 10 0 60184 17100.00000 0 18632462.704 -7650197.032 15654157.922 10 0 60184 18000.00000 0 20401300.668 -7841461.468 13150453.896 10 0 60184 18900.00000 0 21829927.200 -8124082.939 10391289.387 10 0 60184 19800.00000 0 22887917.146 -8447012.440 7430203.203 10 0 60184 20700.00000 0 23557412.957 -8755415.488 4324693.640 10 0 60184 21600.00000 0 23833737.757 -8993196.883 1135102.181 10 0 60184 22500.00000 0 23725471.730 -9105591.060 -2076561.499 10 0 60184 23400.00000 0 23253988.263 -9041707.577 -5247829.963 10 0 60184 24300.00000 0 22452469.185 -8756922.866 -8316999.675 10 0 60184 25200.00000 0 21364440.601 -8215015.634 -11224339.294 10 0 60184 26100.00000 0 20041891.228 -7389954.017 -13913260.096 10 0 60184 27000.00000 0 18543052.957 -6267257.354 -16331424.855 10 0 60184 27900.00000 0 16929937.662 -4844873.473 -18431772.842 10 0 60184 28800.00000 0 15265734.586 -3133533.056 -20173440.371 10 0 60184 29700.00000 0 13612178.344 -1156564.812 -21522558.680 10 0 60184 30600.00000 0 12026998.588 1050821.913 -22452913.535 10 0 60184 31500.00000 0 10561558.660 3442757.913 -22946453.831 10 0 60184 32400.00000 0 9258782.256 5964387.931 -22993639.638 10 0 60184 33300.00000 0 8151454.646 8553928.134 -22593623.292 10 0 60184 34200.00000 0 7260969.026 11145021.762 -21754260.483 10 0 60184 35100.00000 0 6596569.558 13669295.084 -20491951.517 10 0 60184 36000.00000 0 6155121.646 16059007.459 -18831316.254 10 0 60184 36900.00000 0 5921417.741 18249685.361 -16804709.323 10 0 60184 37800.00000 0 5869004.354 20182630.977 -14451585.337 10 0 60184 38700.00000 0 5961494.090 21807201.291 -11817726.643 10 0 60184 39600.00000 0 6154306.087 23082763.108 -8954348.885 10 0 60184 40500.00000 0 6396760.295 23980243.165 -5917101.971 10 0 60184 41400.00000 0 6634436.195 24483209.431 -2764986.132 10 0 60184 42300.00000 0 6811695.555 24588439.345 440795.581 10 0 60184 43200.00000 0 6874262.019 24305952.311 3638025.815 10 0 60184 44100.00000 0 6771748.114 23658506.198 6764679.199 10 0 60184 45000.00000 0 6460022.657 22680579.943 9760122.833 10 0 60184 45900.00000 0 5903318.422 21416885.838 12566287.803 10 0 60184 46800.00000 0 5075990.968 19920474.459 15128789.228 10 0 60184 47700.00000 0 3963854.324 18250512.027 17397973.581 10 0 60184 48600.00000 0 2565036.933 16469823.307 19329873.615 10 0 60184 49500.00000 0 890321.303 14642302.538 20887053.183 10 0 60184 50400.00000 0 -1037047.736 12830300.110 22039326.401 10 0 60184 51300.00000 0 -3182079.324 11092093.312 22764338.019 10 0 60184 52200.00000 0 -5499248.922 9479545.806 23047994.460 10 0 60184 53100.00000 0 -7934157.800 8036052.512 22884737.571 10 0 60184 54000.00000 0 -10425572.291 6794854.693 22277655.972 10 0 60184 54900.00000 0 -12907759.740 5777794.731 21238431.607 10 0 60184 55800.00000 0 -15313025.610 4994561.989 19787122.023 10 0 60184 56700.00000 0 -17574347.635 4442460.839 17951781.779 10 0 60184 57600.00000 0 -19627998.524 4106710.372 15767929.244 10 0 60184 58500.00000 0 -21416048.680 3961263.166 13277868.050 10 0 60184 59400.00000 0 -22888644.889 3970108.770 10529875.235 10 0 60184 60300.00000 0 -24005969.811 4089007.114 7577270.881 10 0 60184 61200.00000 0 -24739799.914 4267578.714 4477386.650 10 0 60184 62100.00000 0 -25074596.058 4451663.246 1290452.913 10 0 60184 63000.00000 0 -25008080.315 4585846.275 -1921573.931 10 0 60184 63900.00000 0 -24551274.120 4616046.515 -5096220.703 10 0 60184 64800.00000 0 -23727995.682 4492053.024 -8171719.133 10 0 60184 65700.00000 0 -22573837.427 4169903.659 -11088215.363 10 0 60184 66600.00000 0 -21134666.458 3614002.634 -13788942.750 10 0 60184 67500.00000 0 -19464711.279 2798886.075 -16221334.231 10 0 60184 68400.00000 0 -17624315.593 1710559.393 -18338051.849 10 0 60184 69300.00000 0 -15677454.082 347348.551 -20097912.769 10 0 60184 70200.00000 0 -13689114.964 -1279772.014 -21466693.452 10 0 60184 71100.00000 0 -11722659.588 -3147389.812 -22417796.245 10 0 60184 72000.00000 0 -9837269.961 -5220395.214 -22932765.549 10 0 60184 72900.00000 0 -8085591.130 -7453222.626 -23001643.805 10 0 60184 73800.00000 0 -6511666.761 -9791540.603 -22623160.797 10 0 60184 74700.00000 0 -5149253.680 -12174320.699 -21804753.000 10 0 60184 75600.00000 0 -4020584.920 -14536198.993 -20562413.047 10 0 60184 76500.00000 0 -3135631.805 -16810032.030 -18920372.611 10 0 60184 77400.00000 0 -2491894.496 -18929540.687 -16910625.179 10 0 60184 78300.00000 0 -2074728.170 -20831931.901 -14572298.286 10 0 60184 79200.00000 0 -1858189.420 -22460389.102 -11950887.609 10 0 60184 80100.00000 0 -1806365.668 -23766327.666 -9097368.072 10 0 60184 81000.00000 0 -1875130.064 -24711321.593 -6067199.458 10 0 60184 81900.00000 0 -2014246.530 -25268621.436 -2919246.090 10 0 60184 82800.00000 0 -2169735.005 -25424200.611 285368.110 10 0 60184 83700.00000 0 -2286396.103 -25177287.075 3484446.715 10 0 60184 84600.00000 0 -2310387.880 -24540358.928 6615926.780 10 0 60184 85500.00000 0 -2191745.419 -23538604.933 9619080.202 99